Flag for United Kingdom Weather past 2 weeks in Stockport, England, United Kingdom

Now
63 °F

Scattered clouds.


Feels Like: 63 °F
Forecast: 49 / 59 °F
Wind: 6 mph from Southwest

Location: Manchester Airport

Current Time: Sep 23, 2014 at 2:22:54 PM

Latest Report: Sep 23, 2014 at 1:50 PM


Visibility: N/A

Pressure: 30.07 "Hg

Humidity: 73%

Dew point: 54 °F

Location of StockportLocation

Historic Weather in Stockport — Graph

°F

Stockport temperature yesterday

Maximum temperature yesterday: 64 °F (at 2:20 PM)
Minimum temperature yesterday: 39 °F (at 3:50 AM)
Average temperature yesterday: 52 °F

Past Weeks' High & Low Weather Summary

 TemperatureHumidityPressure
High72 °F (Sep 10, 2:20 PM)100% (Sep 9, 2:20 AM)30.39 "Hg (Sep 9, 2:20 AM)
Low39 °F (Sep 22, 3:50 AM)47% (Sep 16, 3:20 PM)29.86 "Hg (Sep 18, 4:20 AM)
Average58 °F82%30.14 "Hg
* Reported Sep 8 12:20 PM — Sep 23 12:50 PM, Stockport, Weather by CustomWeather, © 2014

Note: Actual official high and low records may vary slightly from our data, if they occured in-between our weather recording intervals... More about our weather records

Advertising

Stockport weather history for previous 24 hours

 ConditionsComfort  
Time TempWeatherWind HumidityBarometerVisibility
12:50 PM
Sep 23
64 °FScattered clouds.8 mph68%30.09 "Hg6 mi
12:20 PM63 °FPartly sunny.5 mph73%30.09 "Hg6 mi
11:20 AM59 °FPassing clouds.7 mph82%30.09 "Hg5 mi
10:50 AM57 °FScattered clouds.7 mph88%30.12 "Hg4 mi
10:20 AM55 °FPartly sunny.6 mph94%30.12 "Hg4 mi
9:50 AM55 °FFog.7 mph94%30.12 "Hg3 mi
9:20 AM54 °FFog.6 mph94%30.12 "Hg3 mi
8:50 AM52 °FFog.7 mph100%30.12 "Hg3 mi
8:20 AM50 °FFog.6 mph100%30.12 "Hg2 mi
7:50 AM48 °FFog.6 mph100%30.12 "Hg2 mi
7:20 AM48 °FFog.7 mph100%30.12 "Hg2 mi
6:50 AM46 °FFog.7 mph100%30.12 "Hg2 mi
6:20 AM46 °FFog.7 mph100%30.12 "Hg2 mi
5:50 AM46 °FFog.6 mph100%30.12 "Hg2 mi
5:20 AM46 °FFog.5 mph100%30.15 "Hg2 mi
4:50 AM46 °FPassing clouds.7 mph100%30.15 "Hg4 mi
4:20 AM46 °FPassing clouds.7 mph100%30.15 "Hg4 mi
3:50 AM46 °FPassing clouds.6 mph93%30.15 "Hg6 mi
3:20 AM46 °FPassing clouds.7 mph93%30.15 "Hg6 mi
2:50 AM46 °FClear.7 mph93%30.18 "Hg10 mi
2:20 AM46 °FPassing clouds.7 mph100%30.18 "Hg4 mi
1:50 AM46 °FCool.6 mph93%30.18 "Hg4 mi
1:20 AM46 °FClear.5 mph93%30.21 "Hg10 mi
12:50 AM46 °FPassing clouds.5 mph100%30.21 "HgN/A
12:20 AM46 °FClear.5 mph100%30.21 "Hg10 mi
11:50 PM
Sep 22
46 °FClear.3 mph100%30.21 "Hg10 mi
11:20 PM48 °FCool.5 mph94%30.21 "Hg5 mi
10:50 PM48 °FClear.3 mph94%30.24 "Hg10 mi
10:20 PM46 °FClear.5 mph93%30.24 "Hg10 mi
9:50 PM54 °FPassing clouds.5 mph82%30.24 "HgN/A
9:20 PM52 °FPassing clouds.3 mph82%30.24 "HgN/A
8:50 PM52 °FPassing clouds.3 mph82%30.24 "HgN/A
8:20 PM55 °FClear.2 mph72%30.24 "Hg10 mi
7:50 PM57 °FSunny.3 mph67%30.24 "Hg10 mi
7:20 PM57 °FSunny.5 mph67%30.24 "Hg10 mi
6:50 PM61 °FSunny.6 mph59%30.24 "Hg10 mi
6:20 PM63 °FSunny.7 mph59%30.24 "Hg10 mi
5:50 PM63 °FPassing clouds.9 mph59%30.24 "HgN/A
5:20 PM64 °FPassing clouds.10 mph56%30.24 "HgN/A
4:50 PM64 °FPassing clouds.10 mph60%30.24 "HgN/A
4:20 PM64 °FBroken clouds.12 mph60%30.24 "HgN/A
3:50 PM64 °FPartly sunny.9 mph60%30.27 "HgN/A
3:20 PM63 °FPartly sunny.9 mph68%30.27 "HgN/A
2:50 PM64 °FBroken clouds.12 mph64%30.27 "HgN/A
2:20 PM64 °FScattered clouds.6 mph64%30.27 "HgN/A
Weather by CustomWeather, © 2014

See weather overviewHow to use our weather pages